Location: Claremont
(33.9858°S, 18.4575°E)
Time: 03:50:44
(UTC+00:00)

Cosmos 1536 - Pass Details

Date: 03 March 2021
Orbit: 540 x 558 km, 82.5° (Epoch: 10 April)

Event Time Altitude Azimuth Distance (km) Brightness Sun altitude
Rises 17:38:34 0° 180° (S) 2,780 6.6 -4.7°
Reaches altitude 10° 17:40:49 10° 174° (S) 1,875 5.6 -5.1°
Maximum altitude 17:44:50 48° 99° (E) 742 3.1 -5.9°
Drops below altitude 10° 17:48:46 10° 24° (NNE) 1,842 5.2 -6.7°
Sets 17:50:58 0° 18° (NNE) 2,726 6.1 -7.2°
